C/2022 S4 ( Lemmon )

Japanese version
Home page
Updated on March 27, 2023

---------------------------------------------------------------------

* Profile

Discovery Date September 19, 2022
Magnitude 20.6 mag
Discoverer Mt. Lemmon

* Pictures

* Orbital Elements

Epoch 2023 Feb. 25.0 TT = JDT 2460000.5
T 2024 July 17.96746 TT                                 Rudenko
q   2.7670373            (2000.0)            P               Q
z  -0.0003514      Peri.  268.33088     +0.14580486     -0.76038969
 +/-0.0000318      Node   220.15400     +0.27312202     -0.58392540
e   1.0009724      Incl.  101.05002     -0.95086556     -0.28432137
>From 144 observations 2022 Aug. 26-2023 Feb. 16, mean residual 0".3.

* Finding Charts

* Magnitudes Graph

        m1 = 7.5 + 5 log d + 10.0 log r

---------------------------------------------------------------------

The orbital elements are published on M.P.E.C. 2023-D41.
The charts are made with StellaNavigator Ver.10 (AstroArts).
The magnitudes graphs are made with Comet for Windows.

---------------------------------------------------------------------

Copyright(C) Seiichi Yoshida (comet@aerith.net). All rights reserved.